Syracuse, NY

1:04 AM EST on December 06, 2019 (GMT -0500)
Syracuse Hancock International

Weather History for KSYR - October, 2019

Change the Weather History Date:

Tuesday, October 1, 2019

  Actual Average Record
Temperature  
Mean Temperature 75 °F 56 °F  
Max Temperature 88 °F 66 °F 85 °F (1927)
Min Temperature 63 °F 46 °F 30 °F (1947)
Degree Days  
Heating Degree Days 0 10  
Month to date heating degree days 10  
Since 1 July heating degree days 177  
Cooling Degree Days 10 0  
Month to date cooling degree days 0  
Year to date cooling degree days 565  
Growing Degree Days 25 (Base 50)    
Moisture  
Dew Point 64 °F    
Average Humidity 76    
Maximum Humidity 93    
Minimum Humidity 53    
Precipitation  
Precipitation 0.05 in 0.11 in 2.39 in (1959)
Month to date precipitation 0.11  
Year to date precipitation 28.39  
Snow  
Snow - 0.00 in 0.00 in (2002)
Month to date snowfall 0.0  
Since 1 July snowfall 0.0  
Since 1 September snowfall 0.0  
Snow Depth -    
Sea Level Pressure  
Sea Level Pressure 29.93 in    
Wind  
Wind Speed 7 mph ()    
Max Wind Speed 18 mph    
Max Gust Speed 25 mph    
Visibility 9.9 miles    
Events Rain    
T = Trace of Precipitation, MM = Missing Value Source: Averaged Metar Reports

Daily Weather History Graph

Daily Weather History Graph

Search for Another Location

Airport or City:

Astronomy

Oct. 01, 2019 Rise Set
Actual Time 7:01 AM EDT 6:46 PM EDT
Civil Twilight 6:33 AM EDT 7:14 PM EDT
Nautical Twilight 6:00 AM EDT 7:47 PM EDT
Astronomical Twilight 5:26 AM EDT 8:20 PM EDT
Moon 10:19 AM EDT (10/1) 8:52 PM EDT (10/1)
Length of Visible Light 12h 41m
Length of Day
11h 44m
Waxing Crescent, 12% of the Moon is Illuminated
Oct 1
Waxing Crescent
Oct 5
First Quarter
Oct 13
Full
Oct 21
Last Quarter
Oct 27
New

Hourly Weather History & Observations

Time (EDT) Temp. Heat Index Dew Point Humidity Pressure Visibility Wind Dir Wind Speed Gust Speed Precip Events Conditions
12:14 AM 63.0 °F - 57.9 °F 84% 30.07 in 7.0 mi South 10.4 mph - 0.01 in Rain Rain
12:41 AM 63.0 °F - 59.0 °F 87% 30.06 in 10.0 mi South 11.5 mph - 0.04 in Rain Light Rain
12:54 AM 63.0 °F - 59.0 °F 87% 30.04 in 10.0 mi SSE 6.9 mph - 0.04 in   Overcast
1:54 AM 63.0 °F - 59.0 °F 87% 30.03 in 10.0 mi SSE 4.6 mph - 0.00 in Rain Light Rain
2:54 AM 63.0 °F - 60.1 °F 90% 30.01 in 10.0 mi ESE 3.5 mph - 0.00 in Rain Light Rain
3:54 AM 64.9 °F - 60.1 °F 84% 30.00 in 10.0 mi Calm Calm - 0.00 in   Overcast
4:54 AM 63.0 °F - 60.1 °F 90% 29.99 in 10.0 mi East 4.6 mph - N/A   Overcast
5:54 AM 63.0 °F - 61.0 °F 93% 29.98 in 10.0 mi SE 4.6 mph - N/A   Overcast
6:54 AM 66.9 °F - 62.1 °F 84% 29.97 in 10.0 mi South 6.9 mph - N/A   Overcast
7:54 AM 68.0 °F - 63.0 °F 84% 29.97 in 10.0 mi South 5.8 mph - N/A   Overcast
8:54 AM 71.1 °F - 64.0 °F 78% 29.98 in 10.0 mi South 5.8 mph - N/A   Mostly Cloudy
9:54 AM 73.0 °F - 64.9 °F 76% 29.98 in 10.0 mi ESE 3.5 mph - N/A   Overcast
10:54 AM 77.0 °F - 66.0 °F 69% 29.96 in 10.0 mi South 5.8 mph - N/A   Mostly Cloudy
11:54 AM 81.0 °F 83.3 °F 66.9 °F 62% 29.93 in 10.0 mi SW 6.9 mph - N/A   Scattered Clouds
12:54 PM 84.0 °F 86.5 °F 66.9 °F 56% 29.90 in 10.0 mi WSW 9.2 mph - N/A   Scattered Clouds
1:54 PM 86.0 °F 89.4 °F 68.0 °F 55% 29.88 in 10.0 mi WSW 16.1 mph - N/A   Scattered Clouds
2:54 PM 87.1 °F 90.6 °F 68.0 °F 53% 29.85 in 10.0 mi WSW 12.7 mph - N/A   Scattered Clouds
3:54 PM 84.9 °F 88.2 °F 68.0 °F 57% 29.85 in 10.0 mi WSW 11.5 mph 20.7 mph N/A   Mostly Cloudy
4:54 PM 86.0 °F 90.1 °F 69.1 °F 57% 29.85 in 10.0 mi WSW 10.4 mph - N/A   Mostly Cloudy
5:54 PM 82.9 °F 86.5 °F 69.1 °F 63% 29.83 in 10.0 mi SW 6.9 mph - N/A   Overcast
6:54 PM 82.0 °F 84.1 °F 66.0 °F 58% 29.85 in 10.0 mi WSW 16.1 mph - N/A   Overcast
7:54 PM 75.9 °F - 66.9 °F 74% 29.86 in 10.0 mi WSW 18.4 mph 25.3 mph 0.00 in Rain Light Rain
8:54 PM 72.0 °F - 66.0 °F 81% 29.87 in 10.0 mi WSW 13.8 mph - 0.01 in Rain Light Rain
9:54 PM 71.1 °F - 66.0 °F 84% 29.85 in 10.0 mi WSW 8.1 mph - 0.00 in   Mostly Cloudy
10:54 PM 72.0 °F - 66.0 °F 81% 29.84 in 10.0 mi West 12.7 mph - N/A   Mostly Cloudy
11:34 PM 71.1 °F - 66.0 °F 84% 29.84 in 10.0 mi West 9.2 mph - N/A   Overcast
11:49 PM 71.6 °F - 66.2 °F 83% 29.84 in 10.0 mi WSW 9.2 mph - N/A   Mostly Cloudy
11:54 PM 71.1 °F - 66.0 °F 84% 29.82 in 10.0 mi WSW 8.1 mph - N/A   Mostly Cloudy